"2009-09-03 00:00:00",1207009,4.018,79.35,4.487,0.149,21.82,110.0738,25.08,26.14,20.3,0,111.2,13.13,25.92,41.3
"2009-09-03 00:00:30",1207010,3.698,76.42,3.628,0.136,21.83,110.0677,25.07,26.14,20.34,0,111.2,13.13,25.91,38.4
"2009-09-03 00:01:00",1207011,4.027,78.47,3.539,0.179,21.84,110.0517,25.03,26.12,20.42,0,111.2,13.13,25.87,40.5
"2009-09-03 00:01:30",1207012,4.418,83.2,2.579,0.141,21.86,110.0413,25,26.11,20.34,0,111.2,13.13,25.84,45.2
"2009-09-03 00:02:00",1207013,4.378,84.8,1.977,0.123,21.87,110.0404,25,26.08,20.05,0,111.2,13.13,25.84,46.8
"2009-09-03 00:02:30",1207014,4.454,83.1,2.676,0.153,21.87,110.0404,25,26.07,20.13,0,111.2,13.13,25.84,45.1
"2009-09-03 00:03:00",1207015,4.34,78.45,4.771,0.4,21.83,110.0373,24.99,26.06,20.05,0,111.2,13.13,25.83,40.4
"2009-09-03 00:03:30",1207016,5.252,77.02,2.154,0.225,21.86,110.0267,24.96,26.04,20.06,0,111.2,13.13,25.80,39.0
"2009-09-03 00:04:00",1207017,5.165,77.93,4.609,0.292,21.77,110.0115,24.92,26.02,20.24,0,111.2,13.13,25.76,39.9
"2009-09-03 00:04:30",1207018,6.529,89,5.817,0.901,21.15,110.0073,24.91,26.02,21.56,0,111.2,13.13,25.75,51.0
"2009-09-03 00:05:00",1207019,7.91,91.9,1.716,0.376,20.79,110.0053,24.91,26.01,23.85,0,111.2,13.13,25.75,53.9
"2009-09-03 00:05:30",1207020,8.38,90.7,2.499,0.301,20.79,109.979,24.84,25.99,24.2,0,111.2,13.13,25.68,52.7
"2009-09-03 00:06:00",1207021,8.8,89,1.482,0.279,20.9,109.9643,24.8,25.96,24.45,0,111.2,13.13,25.64,51.0
"2009-09-03 00:06:30",1207022,8.35,87.9,2.214,0.279,21.04,109.9362,24.73,25.91,24.59,0,111.2,13.13,25.57,49.9
"2009-09-03 00:07:00",1207023,7.64,85.5,2.492,0.296,21.11,109.9137,24.67,25.89,24.68,0,111.2,13.13,25.51,47.5
"2009-09-03 00:07:30",1207024,7.487,92,2.92,0.236,21.18,109.8932,24.62,25.82,24.71,0,111.1,13.13,25.46,54.0
"2009-09-03 00:08:00",1207025,7.734,90.5,1.565,0.236,21.31,109.8751,24.57,25.77,24.66,0,111.1,13.13,25.41,52.5
"2009-09-03 00:08:30",1207026,7.71,90.2,1.199,0.387,21.37,109.8501,24.51,25.71,24.47,0,111.1,13.13,25.35,52.2
"2009-09-03 00:09:00",1207027,7.809,89.9,1.525,0.352,21.5,109.8258,24.45,25.66,24.25,0,111.1,13.14,25.28,51.9
"2009-09-03 00:09:30",1207028,7.461,86.3,5.892,0.426,21.47,109.7995,24.38,25.6,24.24,0,111.2,13.14,25.22,48.3
"2009-09-03 00:10:00",1207029,6.95,77.74,2.347,0.386,21.66,109.7762,24.32,25.56,24.11,0,111.1,13.14,25.16,39.7
"2009-09-03 00:10:30",1207030,6.368,78.45,1.214,0.361,21.7,109.7622,24.28,25.51,23.98,0,111.1,13.14,25.12,40.4
"2009-09-03 00:11:00",1207031,6.424,83.3,2.238,0.231,21.72,109.7376,24.22,25.45,23.86,0,111.1,13.14,25.06,45.3
"2009-09-03 00:11:30",1207032,6.596,83,3.329,0.362,21.66,109.7328,24.21,25.39,23.82,0,111.1,13.14,25.04,45.0
"2009-09-03 00:12:00",1207033,6.501,87.7,1.516,0.22,21.53,109.7191,24.17,25.36,24.01,0,111.1,13.14,25.01,49.7
"2009-09-03 00:12:30",1207034,6.335,90.3,2.377,0.327,21.63,109.7055,24.14,25.32,23.98,0,111.1,13.14,24.97,52.3
"2009-09-03 00:13:00",1207035,6.027,84.6,2.923,0.446,21.74,109.7062,24.14,25.29,23.85,0,111.1,13.14,24.98,46.6
"2009-09-03 00:13:30",1207036,6.187,86.5,1.795,0.253,21.58,109.6938,24.11,25.26,23.92,0,111.1,13.14,24.94,48.5
"2009-09-03 00:14:00",1207037,6.697,87,0.903,0.144,21.59,109.6762,24.06,25.2,24.15,0,111.1,13.14,24.90,49.0
"2009-09-03 00:14:30",1207038,7.092,84.3,2.056,0.228,21.47,109.6731,24.05,25.19,24.28,0,111.1,13.14,24.89,46.3
"2009-09-03 00:15:00",1207039,6.976,84.6,2.033,0.269,21.45,109.6731,24.05,25.16,24.34,0,111.1,13.14,24.89,46.6
"2009-09-03 00:15:30",1207040,6.735,82.8,2.238,0.171,21.48,109.6641,24.03,25.14,24.39,0,111.1,13.14,24.87,44.8
"2009-09-03 00:16:00",1207041,6.8,81.8,1.578,0.257,21.45,109.6498,23.99,25.14,24.47,0,111.1,13.14,24.83,43.8
"2009-09-03 00:16:30",1207042,6.686,80.3,2.845,0.269,21.44,109.6433,23.98,25.1,24.5,0,111.1,13.14,24.81,42.3
"2009-09-03 00:17:00",1207043,6.655,79.63,2.566,0.19,21.52,109.6394,23.97,25.08,24.42,0,111.1,13.14,24.80,41.6
"2009-09-03 00:17:30",1207044,6.733,81.2,1.521,0.338,21.48,109.6394,23.97,25.07,24.44,0,111.1,13.14,24.80,43.2
"2009-09-03 00:18:00",1207045,6.35,80.6,1.404,0.156,21.5,109.6335,23.95,25.05,24.44,0,111.1,13.14,24.79,42.6
"2009-09-03 00:18:30",1207046,6.298,79.3,2.061,0.146,21.51,109.6161,23.91,25.02,24.51,0,111.1,13.14,24.74,41.3
"2009-09-03 00:19:00",1207047,5.956,77.65,0.715,0.229,21.66,109.6071,23.89,25,24.47,0,111.1,13.14,24.72,39.7
"2009-09-03 00:19:30",1207048,5.422,79.99,1.135,0.075,21.79,109.6057,23.88,24.98,24.45,0,111.1,13.14,24.72,42.0
"2009-09-03 00:20:00",1207049,5.426,78.69,1.39,0.102,21.76,109.6057,23.88,24.97,24.44,0,111.1,13.15,24.72,40.7
"2009-09-03 00:20:30",1207050,5.326,79.05,1.233,0.14,21.67,109.6051,23.88,24.95,24.5,0,111.1,13.15,24.72,41.1
"2009-09-03 00:21:00",1207051,4.852,81.9,1.699,0.143,21.72,109.604,23.88,24.96,24.51,0,111.1,13.15,24.71,43.9
"2009-09-03 00:21:30",1207052,4.911,81.7,1.602,0.107,21.7,109.5984,23.86,24.93,24.51,0,111.1,13.15,24.70,43.7
"2009-09-03 00:22:00",1207053,5.291,77.74,1.497,0.137,21.73,109.5914,23.84,24.92,24.54,0,111.1,13.15,24.68,39.7
"2009-09-03 00:22:30",1207054,5.079,75.83,0.838,0.118,21.71,109.5863,23.83,24.91,24.6,0,111.1,13.15,24.67,37.8
"2009-09-03 00:23:00",1207055,4.87,76.66,0.76,0.13,21.71,109.5794,23.81,24.9,24.59,0,111.1,13.15,24.65,38.7
"2009-09-03 00:23:30",1207056,4.751,77.78,0.885,0.088,21.69,109.5753,23.8,24.88,24.57,0,111.1,13.15,24.64,39.8
"2009-09-03 00:24:00",1207057,4.61,78.46,0.994,0.112,21.62,109.5787,23.81,24.88,24.6,0,111.1,13.15,24.65,40.5
"2009-09-03 00:24:30",1207058,4.36,78.3,1.373,0.106,21.68,109.5821,23.82,24.87,24.6,0,111.1,13.15,24.66,40.3
"2009-09-03 00:25:00",1207059,4.401,77.02,0.93,0.098,21.69,109.5886,23.84,24.88,24.5,0,111.1,13.15,24.67,39.0
"2009-09-03 00:25:30",1207060,4.495,77.53,0.895,0.055,21.66,109.5957,23.86,24.87,24.55,0,111.1,13.15,24.69,39.5
"2009-09-03 00:26:00",1207061,4.747,78.71,2.225,0.196,21.55,109.5978,23.86,24.88,24.58,0,111,13.15,24.70,40.7
"2009-09-03 00:26:30",1207062,4.611,79.99,2.334,0.127,21.56,109.5978,23.86,24.85,24.56,0,111,13.15,24.70,42.0
"2009-09-03 00:27:00",1207063,4.605,82.6,2.631,0.183,21.56,109.5997,23.87,24.87,24.57,0,111,13.15,24.70,44.6
"2009-09-03 00:27:30",1207064,4.603,83.1,1.443,0.129,21.58,109.6,23.87,24.87,24.54,0,111,13.15,24.70,45.1
"2009-09-03 00:28:00",1207065,4.688,83.8,3.146,0.188,21.53,109.6027,23.87,24.89,24.53,0,111,13.15,24.71,45.8
"2009-09-03 00:28:30",1207066,4.852,85.2,2.227,0.17,21.51,109.6021,23.87,24.86,24.49,0,111,13.15,24.71,47.2
"2009-09-03 00:29:00",1207067,5.001,84.5,2.245,0.126,21.51,109.6024,23.87,24.87,24.45,0,111,13.15,24.71,46.5
"2009-09-03 00:29:30",1207068,5.045,84.8,2.733,0.119,21.52,109.6024,23.87,24.85,24.47,0,111,13.14,24.71,46.8
"2009-09-03 00:30:00",1207069,5.319,89.3,1.619,0.178,21.38,109.604,23.88,24.86,24.4,0,111,13.14,24.71,51.3
"2009-09-03 00:30:30",1207070,5.339,88.1,1.82,0.173,21.43,109.6067,23.88,24.87,24.32,0,111,13.14,24.72,50.1
"2009-09-03 00:31:00",1207071,5.649,87.9,2.423,0.232,21.37,109.608,23.89,24.88,24.3,0,111,13.14,24.72,49.9
"2009-09-03 00:31:30",1207072,5.811,92.1,2.502,0.254,21.32,109.6086,23.89,24.85,24.24,0,111,13.14,24.72,54.1
"2009-09-03 00:32:00",1207073,5.993,93.9,3.207,0.112,21.26,109.6075,23.89,24.85,24.24,0,111,13.14,24.72,55.9
"2009-09-03 00:32:30",1207074,5.834,96.4,1.21,0.139,21.1,109.5962,23.86,24.85,24.48,0,111,13.14,24.69,58.4
"2009-09-03 00:33:00",1207075,6,99.1,2.147,0.28,21.06,109.5836,23.82,24.84,24.66,0,111,13.15,24.66,61.1
"2009-09-03 00:33:30",1207076,5.85,101.1,1.57,0.126,20.97,109.5758,23.8,24.83,24.96,0,111,13.15,24.64,63.1
"2009-09-03 00:34:00",1207077,6.056,98,1.218,0.097,21.02,109.5752,23.8,24.82,25.08,0,111,13.15,24.64,60.0
"2009-09-03 00:34:30",1207078,6.059,96.2,1.241,0.124,21.03,109.5715,23.79,24.81,25.21,0,111,13.15,24.63,58.2
"2009-09-03 00:35:00",1207079,6.007,96.8,1.877,0.13,21.03,109.5527,23.75,24.78,25.25,0,111,13.15,24.58,58.8
"2009-09-03 00:35:30",1207080,6.145,97.9,1.319,0.336,21.02,109.5415,23.72,24.77,25.35,0,111,13.15,24.55,59.9
"2009-09-03 00:36:00",1207081,6.25,96.3,2.507,0.136,21.1,109.5342,23.7,24.77,25.37,0,111,13.15,24.53,58.3
"2009-09-03 00:36:30",1207082,6.089,93.5,1.972,0.252,21.06,109.5103,23.64,24.75,25.32,0,111,13.15,24.47,55.5
"2009-09-03 00:37:00",1207083,5.976,94.6,1.224,0.142,21.11,109.5077,23.63,24.73,25.39,0,111,13.15,24.46,56.6
"2009-09-03 00:37:30",1207084,6.329,93,1.196,0.212,21.05,109.4965,23.6,24.69,25.49,0,111,13.15,24.44,55.0
"2009-09-03 00:38:00",1207085,6.695,92.1,1.358,0.172,21.07,109.4768,23.55,24.67,25.54,0,111,13.16,24.38,54.1
"2009-09-03 00:38:30",1207086,6.88,90.4,0.691,0.122,21.09,109.474,23.54,24.65,25.7,0,111,13.16,24.38,52.4
"2009-09-03 00:39:00",1207087,7.054,90,0.534,0.075,21,109.4628,23.51,24.63,25.69,0,111,13.16,24.35,52.0
"2009-09-03 00:39:30",1207088,7.046,91.2,0.582,0.094,21.03,109.4426,23.46,24.61,25.61,0,111,13.16,24.30,53.2
"2009-09-03 00:40:00",1207089,6.745,92.4,0.764,0.14,20.95,109.4403,23.46,24.57,25.66,0,111,13.16,24.29,54.4
"2009-09-03 00:40:30",1207090,6.514,92.3,0.863,0.115,20.92,109.4325,23.44,24.55,25.81,0,111,13.16,24.27,54.3
"2009-09-03 00:41:00",1207091,6.519,92.9,0.893,0.093,20.91,109.4092,23.38,24.52,25.92,0,111,13.16,24.21,54.9
"2009-09-03 00:41:30",1207092,6.578,93.6,0.546,0.165,20.96,109.4088,23.38,24.51,25.89,0,111,13.16,24.21,55.6
"2009-09-03 00:42:00",1207093,6.699,94.8,1.06,0.108,20.95,109.3952,23.34,24.48,25.9,0,111,13.16,24.17,56.8
"2009-09-03 00:42:30",1207094,6.609,94.6,0.985,0.108,20.98,109.3777,23.3,24.45,25.95,0,111,13.16,24.13,56.6
"2009-09-03 00:43:00",1207095,6.625,93.6,1.236,0.109,20.97,109.3745,23.29,24.43,26.07,0,111,13.16,24.12,55.6
"2009-09-03 00:43:30",1207096,6.512,91.4,1.106,0.113,20.9,109.3664,23.27,24.4,26.27,0,111,13.16,24.10,53.4
"2009-09-03 00:44:00",1207097,6.35,91.4,1.145,0.113,20.89,109.3473,23.22,24.38,26.42,0,111,13.16,24.05,53.4
"2009-09-03 00:44:30",1207098,6.308,90.3,1.136,0.123,20.83,109.3447,23.21,24.35,26.54,0,111,13.17,24.04,52.3
"2009-09-03 00:45:00",1207099,5.686,87.3,1.133,0.216,20.8,109.3443,23.21,24.33,26.8,0,111,13.16,24.04,49.3
"2009-09-03 00:45:30",1207100,6.074,86,2.552,0.463,20.77,109.3238,23.16,24.3,26.96,0,111,13.16,23.99,48.0
"2009-09-03 00:46:00",1207101,6.379,78.93,2.43,0.242,20.82,109.3208,23.15,24.27,26.93,0,111,13.16,23.98,40.9
"2009-09-03 00:46:30",1207102,6.121,85.2,2.853,0.329,20.86,109.3251,23.16,24.25,27.06,0,111,13.15,23.99,47.2
"2009-09-03 00:47:00",1207103,6.254,87.1,0.943,0.133,20.88,109.3202,23.15,24.23,27.08,0,111,13.16,23.98,49.1
"2009-09-03 00:47:30",1207104,6.57,88.7,1.517,0.135,20.85,109.3,23.1,24.2,27,0,111,13.15,23.93,50.7
"2009-09-03 00:48:00",1207105,6.628,91.1,1.911,0.239,20.77,109.2981,23.09,24.18,27.04,0,111,13.15,23.92,53.1
"2009-09-03 00:48:30",1207106,7.308,90.2,1.257,0.356,20.61,109.2935,23.08,24.15,27.03,0,111,13.16,23.91,52.2
"2009-09-03 00:49:00",1207107,7.763,89.8,1.31,0.153,20.57,109.2707,23.02,24.13,27.07,0,111,13.16,23.85,51.8
"2009-09-03 00:49:30",1207108,7.56,83.7,2.624,0.424,20.49,109.2657,23.01,24.09,27.49,0,111,13.16,23.84,45.7
"2009-09-03 00:50:00",1207109,7.791,88.2,2.056,0.37,20.34,109.2516,22.97,24.08,27.81,0,111,13.16,23.80,50.2
"2009-09-03 00:50:30",1207110,8.19,91.2,1.974,0.293,20.31,109.2325,22.92,24.05,28.13,0,111,13.17,23.76,53.2
"2009-09-03 00:51:00",1207111,8.44,91.6,1.815,0.357,20.33,109.214,22.88,24.01,28.24,0,111,13.17,23.71,53.6
"2009-09-03 00:51:30",1207112,7.582,96.2,2.065,0.328,20.35,109.1943,22.82,23.97,28.29,0,111,13.17,23.66,58.2
"2009-09-03 00:52:00",1207113,7.29,100.2,1.092,0.204,20.53,109.1709,22.76,23.93,28.24,0,111,13.17,23.60,62.2
"2009-09-03 00:52:30",1207114,7.343,101.9,1.722,0.17,20.54,109.1501,22.71,23.89,28.09,0,111,13.17,23.54,63.9
"2009-09-03 00:53:00",1207115,7.084,106.2,2.395,0.154,20.55,109.1368,22.68,23.84,27.98,0,111,13.17,23.51,68.2
"2009-09-03 00:53:30",1207116,6.884,108.3,2.115,0.212,20.55,109.113,22.62,23.79,27.98,0,111,13.17,23.45,70.3
"2009-09-03 00:54:00",1207117,6.594,110.3,1.801,0.193,20.55,109.104,22.59,23.76,28.17,0,111,13.17,23.42,72.3
"2009-09-03 00:54:30",1207118,6.394,108.2,1.903,0.143,20.46,109.0767,22.52,23.72,28.36,0,111,13.17,23.35,70.2
"2009-09-03 00:55:00",1207119,6.086,111.1,2.115,0.449,20.57,109.0722,22.51,23.67,28.28,0,111,13.17,23.34,73.1
"2009-09-03 00:55:30",1207120,5.767,110.7,1.033,0.157,20.64,109.0559,22.47,23.63,28.1,0,111,13.17,23.30,72.7
"2009-09-03 00:56:00",1207121,6.217,110.6,1.418,0.297,20.42,109.0393,22.43,23.59,28.27,0,111,13.17,23.26,72.6
"2009-09-03 00:56:30",1207122,6.38,109.7,1.641,0.292,20.43,109.0388,22.43,23.59,28.34,0,111,13.17,23.26,71.7
"2009-09-03 00:57:00",1207123,6.008,107.5,1.53,0.14,20.45,109.0239,22.39,23.54,28.32,0,111,13.17,23.22,69.5
"2009-09-03 00:57:30",1207124,6.471,104.9,0.963,0.156,20.51,109.0067,22.34,23.51,28.26,0,110.9,13.17,23.17,66.9
"2009-09-03 00:58:00",1207125,6.205,106.1,1.173,0.106,20.48,109.0051,22.34,23.5,28.23,0,110.9,13.17,23.17,68.1
"2009-09-03 00:58:30",1207126,6.407,106.8,0.517,0.06,20.35,109.0051,22.34,23.47,28.12,0,110.9,13.18,23.17,68.8
"2009-09-03 00:59:00",1207127,6.356,109.8,1.167,0.06,20.24,108.9904,22.3,23.44,28.77,0,110.9,13.18,23.13,71.8
"2009-09-03 00:59:30",1207128,6.096,112.5,0.999,0.124,20.35,108.973,22.26,23.42,28.67,0,110.9,13.18,23.09,74.5
"2009-09-03 01:00:00",1207129,5.739,110.9,0.968,0.12,20.46,108.9713,22.25,23.4,28.24,0,110.9,13.18,23.08,72.9
"2009-09-03 01:00:30",1207130,5.792,110.8,1.271,0.106,20.38,108.9708,22.25,23.37,28.34,0,110.9,13.18,23.08,72.8
"2009-09-03 01:01:00",1207131,6.203,110,0.941,0.218,20.34,108.9511,22.2,23.35,28.5,0,110.9,13.18,23.03,72.0
"2009-09-03 01:01:30",1207132,6.679,105.6,2.177,0.264,20.23,108.9376,22.17,23.32,29.21,0,110.9,13.18,23.00,67.6
"2009-09-03 01:02:00",1207133,7.414,98.2,1.882,0.2,20.2,108.9376,22.17,23.31,29.4,0,110.9,13.17,23.00,60.2
"2009-09-03 01:02:30",1207134,8.28,92.5,1.985,0.398,20.04,108.9351,22.16,23.28,29.34,0,110.9,13.17,22.99,54.5
"2009-09-03 01:03:00",1207135,9.36,87.2,2.314,0.281,19.99,108.9146,22.11,23.26,29.37,0,111,13.17,22.94,49.2
"2009-09-03 01:03:30",1207136,9.59,85.9,1.613,0.242,20,108.9054,22.08,23.25,29.42,0,110.9,13.17,22.91,47.9
"2009-09-03 01:04:00",1207137,9.95,87.4,1.606,0.195,20.04,108.8965,22.06,23.22,29.37,0,110.9,13.17,22.89,49.4
"2009-09-03 01:04:30",1207138,10.07,90.7,2.013,0.188,20.2,108.8759,22.01,23.18,29.27,0,110.9,13.17,22.84,52.7
"2009-09-03 01:05:00",1207139,9.58,95.4,2.148,0.365,20.27,108.8675,21.99,23.14,29.14,0,110.9,13.17,22.81,57.4
"2009-09-03 01:05:30",1207140,8.77,97.6,3.481,0.442,20.49,108.8484,21.94,23.12,28.97,0,110.9,13.17,22.77,59.6
"2009-09-03 01:06:00",1207141,8.75,101.5,2.622,0.568,20.49,108.8433,21.92,23.07,28.78,0,110.9,13.17,22.75,63.5
"2009-09-03 01:06:30",1207142,8.18,103.6,3.651,0.36,20.5,108.8245,21.88,23.04,28.69,0,110.9,13.17,22.70,65.6
"2009-09-03 01:07:00",1207143,8.47,107.2,1.156,0.182,20.16,108.8256,21.88,23.01,28.99,0,110.9,13.18,22.71,69.2
"2009-09-03 01:07:30",1207144,7.761,109.7,1.61,0.452,20.29,108.8278,21.88,22.99,29.05,0,110.9,13.18,22.71,71.7
"2009-09-03 01:08:00",1207145,6.844,107.5,4.11,0.239,20.49,108.8259,21.88,22.95,28.55,0,110.9,13.18,22.71,69.5
"2009-09-03 01:08:30",1207146,6.896,108.1,2.479,0.232,20.61,108.8165,21.85,22.93,28.51,0,110.9,13.19,22.68,70.1
"2009-09-03 01:09:00",1207147,6.786,105.8,2.713,0.411,20.66,108.8117,21.84,22.9,28.33,0,110.9,13.19,22.67,67.8
"2009-09-03 01:09:30",1207148,6.298,105.8,1.115,0.174,20.64,108.8182,21.86,22.91,28.22,0,110.9,13.19,22.69,67.8
"2009-09-03 01:10:00",1207149,6.31,106.5,1.271,0.101,20.56,108.8308,21.89,22.89,28.17,0,110.9,13.19,22.72,68.5
"2009-09-03 01:10:30",1207150,5.805,109.6,2.906,0.143,20.73,108.8357,21.9,22.89,27.94,0,110.9,13.19,22.73,71.6
"2009-09-03 01:11:00",1207151,5.903,116.5,2.137,0.325,20.92,108.8376,21.91,22.88,27.7,0,110.9,13.19,22.74,78.5
"2009-09-03 01:11:30",1207152,5.96,117.6,3.662,0.276,20.89,108.837,21.91,22.88,27.14,0,110.9,13.19,22.74,79.6
"2009-09-03 01:12:00",1207153,6.07,119.2,2.143,0.199,20.86,108.841,21.92,22.9,27.19,0,110.9,13.19,22.75,81.2
"2009-09-03 01:12:30",1207154,4.643,115.1,7.157,1.124,21.1,108.8616,21.97,22.9,26.59,0,110.9,13.19,22.80,77.1
"2009-09-03 01:13:00",1207155,2.844,114.9,13.31,0.859,21.24,108.8731,22,22.9,25.47,0,110.9,13.19,22.83,76.9
"2009-09-03 01:13:30",1207156,3.632,113,12.62,0.615,21.22,108.8745,22,22.92,25.42,0,110.9,13.19,22.83,75.0
"2009-09-03 01:14:00",1207157,2.762,128.4,7.691,0.284,20.82,108.8987,22.07,22.94,25.65,0,110.9,13.19,22.89,90.4
"2009-09-03 01:14:30",1207158,2.061,116.1,7.379,0.123,20.83,108.9069,22.09,22.96,26.2,0,110.9,13.19,22.92,78.1
"2009-09-03 01:15:00",1207159,2.217,117.8,5.529,0.24,21.07,108.9069,22.09,22.98,25.62,0,110.9,13.19,22.92,79.8
"2009-09-03 01:15:30",1207160,1.354,89.3,24.15,0.409,21.08,108.9176,22.11,23.01,25.11,0,110.9,13.19,22.94,51.3
"2009-09-03 01:16:00",1207161,1.103,106,21.78,0.414,21.05,108.9378,22.17,23.04,25.01,0,110.9,13.19,23.00,68.0
"2009-09-03 01:16:30",1207162,0.593,145.4,17.47,0.346,21.08,108.9406,22.17,23.05,24.95,0,110.9,13.19,23.00,107.4
"2009-09-03 01:17:00",1207163,0.673,148.2,15.11,0.254,20.99,108.9434,22.18,23.07,24.89,0,110.9,13.19,23.01,110.2
"2009-09-03 01:17:30",1207164,1.448,110.9,23.75,0.693,20.98,108.9544,22.21,23.11,24.98,0,110.9,13.19,23.04,72.9
"2009-09-03 01:18:00",1207165,1.638,92.7,16.34,0.265,21,108.9718,22.25,23.13,24.9,0,110.9,13.19,23.08,54.7
"2009-09-03 01:18:30",1207166,1.518,126.1,7.031,0.197,21.12,108.9744,22.26,23.16,24.72,0,110.9,13.19,23.09,88.1
"2009-09-03 01:19:00",1207167,2.057,122.9,10.92,0.485,21.05,108.9808,22.28,23.18,24.61,0,110.9,13.19,23.11,84.9
"2009-09-03 01:19:30",1207168,2.862,127.2,4.929,0.522,21.09,109.007,22.34,23.21,24.67,0,110.9,13.19,23.17,89.2
"2009-09-03 01:20:00",1207169,2.264,122.2,12.23,0.397,21.1,109.0081,22.35,23.24,24.37,0,110.9,13.19,23.18,84.2
"2009-09-03 01:20:30",1207170,1.278,119.8,13.21,0.406,21.03,109.0132,22.36,23.26,24.58,0,110.9,13.18,23.19,81.8
"2009-09-03 01:21:00",1207171,1.132,111.8,20.11,0.267,21.04,109.0331,22.41,23.28,24.56,0,110.9,13.18,23.24,73.8
"2009-09-03 01:21:30",1207172,1.656,87.7,8.04,0.302,21.1,109.0415,22.43,23.31,24.41,0,110.9,13.18,23.26,49.7
"2009-09-03 01:22:00",1207173,1.949,63.68,5.414,0.292,21.14,109.0418,22.43,23.32,24.24,0,110.9,13.18,23.26,25.7
"2009-09-03 01:22:30",1207174,1.956,74.46,14.97,0.242,21.21,109.0418,22.43,23.37,24.16,0,110.9,13.18,23.26,36.5
"2009-09-03 01:23:00",1207175,1.875,93.8,12.37,0.255,21.28,109.0455,22.44,23.36,23.8,0,110.9,13.18,23.27,55.8
"2009-09-03 01:23:30",1207176,2.449,119.7,8.05,0.598,21.06,109.0711,22.51,23.4,24.14,0,110.9,13.18,23.34,81.7
"2009-09-03 01:24:00",1207177,3.607,106.4,6.438,0.541,20.87,109.0756,22.52,23.42,24.65,0,110.9,13.19,23.35,68.4
"2009-09-03 01:24:30",1207178,3.438,107.7,8.36,0.457,20.85,109.0761,22.52,23.46,24.81,0,110.9,13.19,23.35,69.7
"2009-09-03 01:25:00",1207179,4.85,103.8,7.048,0.632,20.64,109.0871,22.55,23.48,25.15,0,110.9,13.19,23.38,65.8
"2009-09-03 01:25:30",1207180,5.182,96,4.707,0.273,20.73,109.0969,22.57,23.49,25.32,0,110.9,13.19,23.41,58.0
"2009-09-03 01:26:00",1207181,5.371,99.3,6.712,0.348,20.59,109.1076,22.6,23.5,25.44,0,110.9,13.19,23.43,61.3
"2009-09-03 01:26:30",1207182,6.495,100.7,3.017,0.628,20.56,109.1093,22.61,23.53,25.52,0,110.9,13.19,23.44,62.7
"2009-09-03 01:27:00",1207183,7.248,99.5,3.839,0.252,20.21,109.1093,22.61,23.52,26.17,0,110.9,13.19,23.44,61.5
"2009-09-03 01:27:30",1207184,7.802,95.7,2.241,0.325,20.05,109.1087,22.61,23.55,26.74,0,110.9,13.19,23.44,57.7
"2009-09-03 01:28:00",1207185,7.146,93.5,2.236,0.46,20.21,109.0964,22.57,23.55,26.72,0,110.9,13.19,23.40,55.5
"2009-09-03 01:28:30",1207186,5.825,84.7,4.795,0.155,20.52,109.0778,22.53,23.55,26.21,0,110.9,13.19,23.36,46.7
"2009-09-03 01:29:00",1207187,5.765,93,4.166,0.117,20.44,109.0756,22.52,23.55,26.3,0,110.9,13.19,23.35,55.0
"2009-09-03 01:29:30",1207188,5.865,94.2,1.849,0.119,20.52,109.0753,22.52,23.53,26.21,0,110.9,13.19,23.35,56.2
"2009-09-03 01:30:00",1207189,6.279,95.6,1.942,0.329,20.15,109.0595,22.48,23.53,26.49,0,110.9,13.19,23.31,57.6
"2009-09-03 01:30:30",1207190,6.718,103,4.146,0.391,19.81,109.0418,22.43,23.51,27.17,0,110.9,13.19,23.26,65.0
"2009-09-03 01:31:00",1207191,7.915,107.4,3.613,0.33,19.84,109.0396,22.43,23.5,27.43,0,110.9,13.19,23.26,69.4
"2009-09-03 01:31:30",1207192,7.795,96.4,3.506,0.452,20.36,109.0112,22.35,23.48,27.33,0,110.9,13.19,23.18,58.4
"2009-09-03 01:32:00",1207193,7.261,94.1,3.518,0.356,20.51,108.9918,22.31,23.45,27.23,0,110.9,13.19,23.13,56.1
"2009-09-03 01:32:30",1207194,7.245,91.8,1.294,0.272,20.39,108.9717,22.25,23.4,27.55,0,110.9,13.2,23.08,53.8
"2009-09-03 01:33:00",1207195,6.104,92.5,4.503,0.305,20.15,108.9438,22.18,23.39,27.58,0,110.9,13.2,23.01,54.5
"2009-09-03 01:33:30",1207196,5.449,99.9,3.669,0.245,20.16,108.9296,22.15,23.34,27.56,0,110.9,13.2,22.97,61.9
"2009-09-03 01:34:00",1207197,5.602,98.5,2.257,0.264,20.37,108.9115,22.1,23.3,27.66,0,110.9,13.2,22.93,60.5
"2009-09-03 01:34:30",1207198,5.068,105,3.646,0.34,20.38,108.8931,22.05,23.25,27.72,0,110.9,13.2,22.88,67.0
"2009-09-03 01:35:00",1207199,5.558,106.6,3.9,0.368,18.54,108.879,22.02,23.2,27.57,0,110.9,13.2,22.84,68.6
"2009-09-03 01:35:30",1207200,5.226,94.2,21.26,0.834,21.43,108.8551,21.95,23.15,24.72,0,110.9,13.2,22.78,56.2
"2009-09-03 01:36:00",1207201,4.234,95.8,6.583,0.535,21.03,108.8498,21.94,23.12,24.87,0,110.9,13.19,22.77,57.8
"2009-09-03 01:36:30",1207202,4.787,101.6,5.307,0.756,20.91,108.8538,21.95,23.09,25.28,0,110.9,13.19,22.78,63.6
"2009-09-03 01:37:00",1207203,4.635,113.5,6.406,0.303,20.39,108.8421,21.92,23.06,26.78,0,110.9,13.2,22.75,75.5
"2009-09-03 01:37:30",1207204,3.591,94.3,20.16,0.631,20.76,108.832,21.89,23.04,26.41,0,110.9,13.19,22.72,56.3
"2009-09-03 01:38:00",1207205,2.266,95.7,20.28,1.034,20.9,108.8369,21.91,23,25.55,0,110.9,13.19,22.74,57.7
"2009-09-03 01:38:30",1207206,4.741,86.3,11.59,0.851,21.21,108.839,21.91,22.96,24.63,0,110.9,13.19,22.74,48.3
"2009-09-03 01:39:00",1207207,3.906,95.5,13.46,1.128,21.14,108.8409,21.92,22.96,24.18,0,110.9,13.19,22.75,57.5
"2009-09-03 01:39:30",1207208,4.03,97.5,13.71,0.555,21.07,108.8424,21.92,22.95,24.13,0,110.9,13.19,22.75,59.5
"2009-09-03 01:40:00",1207209,4.104,131.3,7.113,0.505,20.84,108.8424,21.92,22.95,24.8,0,110.9,13.2,22.75,93.3
"2009-09-03 01:40:30",1207210,5.139,127.6,8.23,0.635,20.9,108.8477,21.94,22.95,24.41,0,110.9,13.2,22.76,89.6
"2009-09-03 01:41:00",1207211,6.036,111.1,5.066,0.432,20.36,108.8666,21.98,22.94,25.87,0,110.9,13.2,22.81,73.1
"2009-09-03 01:41:30",1207212,6.038,106.5,2.619,0.171,20.31,108.8753,22.01,22.96,26.33,0,110.9,13.2,22.83,68.5
"2009-09-03 01:42:00",1207213,5.983,110.2,1.547,0.153,20.4,108.8761,22.01,22.95,26.42,0,110.9,13.2,22.84,72.2
"2009-09-03 01:42:30",1207214,5.884,107.2,3.617,0.19,20.53,108.8761,22.01,22.96,26.25,0,110.9,13.2,22.84,69.2
"2009-09-03 01:43:00",1207215,5.905,111.3,1.716,0.145,20.57,108.8761,22.01,22.97,26.15,0,110.9,13.2,22.84,73.3
"2009-09-03 01:43:30",1207216,5.519,112.1,1.935,0.277,20.59,108.8761,22.01,22.96,26.05,0,110.9,13.2,22.84,74.1
"2009-09-03 01:44:00",1207217,5.161,112.4,2.235,0.202,20.71,108.8761,22.01,22.98,25.87,0,110.9,13.2,22.84,74.4
"2009-09-03 01:44:30",1207218,4.878,116.7,2.756,0.388,20.75,108.8761,22.01,22.97,25.61,0,110.9,13.21,22.84,78.7
"2009-09-03 01:45:00",1207219,3.963,116.5,6.349,0.486,20.9,108.8761,22.01,22.98,25.16,0,110.9,13.21,22.84,78.5
"2009-09-03 01:45:30",1207220,4.594,124.7,2.073,0.346,20.78,108.8761,22.01,22.99,25.27,0,110.9,13.21,22.84,86.7
"2009-09-03 01:46:00",1207221,4.974,119.9,3.217,0.391,20.65,108.8806,22.02,22.98,25.46,0,110.9,13.21,22.85,81.9
"2009-09-03 01:46:30",1207222,5.636,123.1,2.793,0.271,20.86,108.8879,22.04,22.99,25.27,0,110.9,13.21,22.87,85.1
"2009-09-03 01:47:00",1207223,6.426,120.9,6.802,0.258,20.61,108.9031,22.08,23,25.21,0,110.9,13.21,22.91,82.9
"2009-09-03 01:47:30",1207224,6.176,126.8,5,0.301,20.53,108.9099,22.09,23,25.69,0,110.9,13.21,22.92,88.8
"2009-09-03 01:48:00",1207225,6.702,121.9,7.806,0.415,20.65,108.9099,22.09,23.01,25.42,0,110.9,13.21,22.92,83.9
"2009-09-03 01:48:30",1207226,7.986,123,2.453,0.317,20.37,108.9099,22.09,23.04,25.69,0,110.9,13.21,22.92,85.0